N017SB PASC-PABR

Flight info

Callsign N017SB
Flight time 1h 7m
Altitude 8000
Route ASUKY
Aircraft C208/L-SDFGR/C

Departure

Time 2026-04-21 17:45
Airport Deadhorse Airport (PASC)

Arrival

Time 2026-04-21 18:52
Airport Wiley Post Will Rogers Memorial Airport (PABR)
Time Latitude Longitude Altitude Speed Heading
2026-04-21 17:44 70.23495 -148.66493 2547 ft 113 kts 298°
2026-04-21 17:45 70.23849 -148.68546 2840 ft 115 kts 300°
2026-04-21 17:45 70.24209 -148.70673 3122 ft 117 kts 300°
2026-04-21 17:45 70.24574 -148.72836 3411 ft 118 kts 301°
2026-04-21 17:45 70.24942 -148.75021 3703 ft 119 kts 300°
2026-04-21 17:46 70.25312 -148.77227 4002 ft 120 kts 301°
2026-04-21 17:46 70.25685 -148.79448 4295 ft 121 kts 300°
2026-04-21 17:46 70.26059 -148.81691 4579 ft 122 kts 301°
2026-04-21 17:46 70.26438 -148.83949 4863 ft 123 kts 300°
2026-04-21 17:47 70.26817 -148.86226 5129 ft 123 kts 300°
2026-04-21 17:47 70.27198 -148.88499 5391 ft 123 kts 299°
2026-04-21 17:47 70.27571 -148.90743 5654 ft 123 kts 298°
2026-04-21 17:47 70.27950 -148.93012 5911 ft 123 kts 298°
2026-04-21 17:48 70.28206 -148.94552 6082 ft 123 kts 298°
2026-04-21 17:48 70.28706 -148.97558 6416 ft 123 kts 297°
2026-04-21 17:48 70.29081 -148.99828 6649 ft 123 kts 297°
2026-04-21 17:48 70.29459 -149.02102 6858 ft 123 kts 296°
2026-04-21 17:49 70.29837 -149.04390 7066 ft 124 kts 295°
2026-04-21 17:49 70.30218 -149.06686 7278 ft 124 kts 295°
2026-04-21 17:49 70.30598 -149.08995 7497 ft 124 kts 296°
2026-04-21 17:49 70.30979 -149.11297 7708 ft 124 kts 295°
2026-04-21 17:50 70.31359 -149.13608 7908 ft 125 kts 295°
2026-04-21 17:50 70.31741 -149.15929 8108 ft 127 kts 294°
2026-04-21 17:50 70.32158 -149.18460 8141 ft 145 kts 295°
2026-04-21 17:50 70.32617 -149.21247 8144 ft 154 kts 295°
2026-04-21 17:51 70.33088 -149.24103 8146 ft 158 kts 295°
2026-04-21 17:51 70.33573 -149.27055 8147 ft 160 kts 295°
2026-04-21 17:51 70.34061 -149.30041 8147 ft 161 kts 295°
2026-04-21 17:51 70.34550 -149.33040 8166 ft 162 kts 295°
2026-04-21 17:52 70.35042 -149.36054 8166 ft 162 kts 295°
2026-04-21 17:52 70.35531 -149.39063 8166 ft 162 kts 295°
2026-04-21 17:52 70.36022 -149.42083 8166 ft 162 kts 295°
2026-04-21 17:52 70.36513 -149.45112 8166 ft 162 kts 295°
2026-04-21 17:53 70.37003 -149.48133 8167 ft 162 kts 295°
2026-04-21 17:53 70.37494 -149.51175 8167 ft 164 kts 295°
2026-04-21 17:53 70.37989 -149.54240 8165 ft 164 kts 295°
2026-04-21 17:53 70.38484 -149.57306 8166 ft 164 kts 295°
2026-04-21 17:54 70.38979 -149.60379 8166 ft 165 kts 295°
2026-04-21 17:54 70.39472 -149.63451 8165 ft 164 kts 295°
2026-04-21 17:54 70.39966 -149.66528 8164 ft 165 kts 296°
2026-04-21 17:54 70.40462 -149.69620 8164 ft 165 kts 296°
2026-04-21 17:55 70.40958 -149.72719 8164 ft 166 kts 296°
2026-04-21 17:55 70.41453 -149.75820 8164 ft 165 kts 296°
2026-04-21 17:55 70.41947 -149.78917 8164 ft 165 kts 296°
2026-04-21 17:55 70.42436 -149.81983 8164 ft 166 kts 296°
2026-04-21 17:56 70.42932 -149.85106 8165 ft 167 kts 296°
2026-04-21 17:56 70.43428 -149.88229 8165 ft 167 kts 296°
2026-04-21 17:56 70.43926 -149.91372 8164 ft 168 kts 295°
2026-04-21 17:56 70.44427 -149.94533 8162 ft 168 kts 295°
2026-04-21 17:57 70.44925 -149.97685 8162 ft 169 kts 296°
2026-04-21 17:57 70.45427 -150.00871 8157 ft 170 kts 296°
2026-04-21 17:57 70.45929 -150.04060 8157 ft 170 kts 295°
2026-04-21 17:57 70.46432 -150.07252 8157 ft 170 kts 295°
2026-04-21 17:58 70.46932 -150.10439 8158 ft 170 kts 296°
2026-04-21 17:58 70.47433 -150.13636 8158 ft 170 kts 295°
2026-04-21 17:58 70.47933 -150.16833 8158 ft 170 kts 295°
2026-04-21 17:58 70.48433 -150.20032 8158 ft 170 kts 295°
2026-04-21 17:59 70.48932 -150.23232 8163 ft 170 kts 295°
2026-04-21 17:59 70.49432 -150.26442 8158 ft 170 kts 295°
2026-04-21 17:59 70.49933 -150.29667 8134 ft 171 kts 295°
2026-04-21 17:59 70.50433 -150.32881 8134 ft 170 kts 295°
2026-04-21 18:00 70.50930 -150.36093 8135 ft 170 kts 295°
2026-04-21 18:00 70.51426 -150.39298 8134 ft 170 kts 295°
2026-04-21 18:00 70.51924 -150.42520 8134 ft 170 kts 295°
2026-04-21 18:00 70.52419 -150.45729 8134 ft 170 kts 295°
2026-04-21 18:01 70.52914 -150.48947 8135 ft 170 kts 295°
2026-04-21 18:01 70.53401 -150.52121 8149 ft 170 kts 295°
2026-04-21 18:01 70.53901 -150.55376 8150 ft 170 kts 295°
2026-04-21 18:01 70.54388 -150.58546 8150 ft 170 kts 295°
2026-04-21 18:02 70.54720 -150.60720 8150 ft 169 kts 295°
2026-04-21 18:02 70.55372 -150.64990 8151 ft 171 kts 296°
2026-04-21 18:02 70.55872 -150.68265 8057 ft 175 kts 296°
2026-04-21 18:02 70.56385 -150.71628 7920 ft 179 kts 296°
2026-04-21 18:03 70.56903 -150.75034 7814 ft 179 kts 296°
2026-04-21 18:03 70.57410 -150.78389 7814 ft 175 kts 296°
2026-04-21 18:03 70.57910 -150.81690 7816 ft 172 kts 296°
2026-04-21 18:03 70.58360 -150.84675 7812 ft 143 kts 296°
2026-04-21 18:04 70.58751 -150.87290 7808 ft 132 kts 296°
2026-04-21 18:04 70.59001 -150.88954 7785 ft 136 kts 296°
2026-04-21 18:04 70.59571 -150.92718 7807 ft 157 kts 296°
2026-04-21 18:04 70.60032 -150.95778 7813 ft 164 kts 296°
2026-04-21 18:05 70.60509 -150.98946 7814 ft 168 kts 296°
2026-04-21 18:05 70.60987 -151.02139 7814 ft 170 kts 296°
2026-04-21 18:05 70.61474 -151.05394 7814 ft 171 kts 296°
2026-04-21 18:05 70.61961 -151.08656 7813 ft 171 kts 296°
2026-04-21 18:06 70.62449 -151.11925 7814 ft 171 kts 295°
2026-04-21 18:06 70.62936 -151.15200 7813 ft 171 kts 296°
2026-04-21 18:06 70.63423 -151.18482 7813 ft 171 kts 296°
2026-04-21 18:06 70.63746 -151.20652 7814 ft 171 kts 296°
2026-04-21 18:07 70.64230 -151.23926 7816 ft 171 kts 295°
2026-04-21 18:07 70.64715 -151.27199 7816 ft 171 kts 295°
2026-04-21 18:07 70.65359 -151.31562 7815 ft 171 kts 295°
2026-04-21 18:07 70.65842 -151.34839 7815 ft 171 kts 295°
2026-04-21 18:08 70.66168 -151.37056 7815 ft 171 kts 295°
2026-04-21 18:08 70.66649 -151.40330 7817 ft 171 kts 295°
2026-04-21 18:08 70.67133 -151.43629 7818 ft 173 kts 295°
2026-04-21 18:08 70.67621 -151.46961 7819 ft 174 kts 295°
2026-04-21 18:09 70.68110 -151.50310 7819 ft 175 kts 295°
2026-04-21 18:09 70.68601 -151.53673 7819 ft 175 kts 295°
2026-04-21 18:09 70.69090 -151.57026 7819 ft 175 kts 295°
2026-04-21 18:09 70.69573 -151.60352 7813 ft 175 kts 296°
2026-04-21 18:10 70.70062 -151.63723 7813 ft 175 kts 296°
2026-04-21 18:10 70.70549 -151.67086 7813 ft 175 kts 295°
2026-04-21 18:10 70.71036 -151.70449 7813 ft 175 kts 295°
2026-04-21 18:10 70.71522 -151.73815 7813 ft 175 kts 295°
2026-04-21 18:11 70.72007 -151.77182 7813 ft 174 kts 295°
2026-04-21 18:11 70.72491 -151.80548 7816 ft 174 kts 295°
2026-04-21 18:11 70.72975 -151.83913 7816 ft 174 kts 295°
2026-04-21 18:11 70.73456 -151.87266 7815 ft 173 kts 295°
2026-04-21 18:12 70.73932 -151.90597 7815 ft 171 kts 295°
2026-04-21 18:12 70.74404 -151.93897 7815 ft 171 kts 295°
2026-04-21 18:12 70.74875 -151.97199 7815 ft 171 kts 295°
2026-04-21 18:12 70.75345 -152.00498 7815 ft 170 kts 295°
2026-04-21 18:13 70.75814 -152.03798 7814 ft 170 kts 295°
2026-04-21 18:13 70.76282 -152.07099 7814 ft 170 kts 295°
2026-04-21 18:13 70.76750 -152.10401 7814 ft 170 kts 295°
2026-04-21 18:13 70.77217 -152.13702 7814 ft 170 kts 295°
2026-04-21 18:14 70.78151 -152.20328 7821 ft 172 kts 295°
2026-04-21 18:14 70.78623 -152.23681 7821 ft 173 kts 295°
2026-04-21 18:14 70.79097 -152.27057 7821 ft 174 kts 295°
2026-04-21 18:15 70.79565 -152.30400 7820 ft 174 kts 295°
2026-04-21 18:15 70.80040 -152.33793 7819 ft 175 kts 295°
2026-04-21 18:15 70.80515 -152.37188 7820 ft 175 kts 295°
2026-04-21 18:15 70.80989 -152.40587 7820 ft 175 kts 295°
2026-04-21 18:16 70.81462 -152.43993 7821 ft 174 kts 295°
2026-04-21 18:16 70.81923 -152.47309 7819 ft 167 kts 295°
2026-04-21 18:16 70.82372 -152.50538 7818 ft 165 kts 295°
2026-04-21 18:16 70.82813 -152.53726 7817 ft 163 kts 295°
2026-04-21 18:17 70.83254 -152.56925 7820 ft 164 kts 295°
2026-04-21 18:17 70.83700 -152.60141 7818 ft 166 kts 295°
2026-04-21 18:17 70.84148 -152.63389 7818 ft 167 kts 295°
2026-04-21 18:17 70.84596 -152.66662 7819 ft 167 kts 295°
2026-04-21 18:18 70.85039 -152.69891 7815 ft 168 kts 295°
2026-04-21 18:18 70.85488 -152.73168 7816 ft 168 kts 295°
2026-04-21 18:18 70.85938 -152.76455 7816 ft 168 kts 295°
2026-04-21 18:18 70.86386 -152.79737 7816 ft 168 kts 295°
2026-04-21 18:19 70.86835 -152.83028 7818 ft 168 kts 295°
2026-04-21 18:19 70.87284 -152.86325 7819 ft 169 kts 295°
2026-04-21 18:19 70.87733 -152.89637 7820 ft 169 kts 295°
2026-04-21 18:19 70.88183 -152.92953 7821 ft 170 kts 295°
2026-04-21 18:20 70.88636 -152.96296 7824 ft 170 kts 295°
2026-04-21 18:20 70.89087 -152.99638 7826 ft 170 kts 295°
2026-04-21 18:20 70.89537 -153.02979 7824 ft 170 kts 295°
2026-04-21 18:20 70.89985 -153.06305 7823 ft 169 kts 295°
2026-04-21 18:21 70.90430 -153.09616 7823 ft 168 kts 295°
2026-04-21 18:21 70.90874 -153.12929 7823 ft 168 kts 295°
2026-04-21 18:21 70.91316 -153.16232 7823 ft 168 kts 295°
2026-04-21 18:21 70.91752 -153.19489 7823 ft 168 kts 295°
2026-04-21 18:22 70.92193 -153.22792 7822 ft 168 kts 295°
2026-04-21 18:22 70.92633 -153.26096 7822 ft 168 kts 295°
2026-04-21 18:22 70.93073 -153.29404 7822 ft 168 kts 295°
2026-04-21 18:22 70.93513 -153.32721 7822 ft 168 kts 295°
2026-04-21 18:23 70.93951 -153.36025 7822 ft 168 kts 295°
2026-04-21 18:23 70.94390 -153.39352 7822 ft 168 kts 295°
2026-04-21 18:23 70.94829 -153.42670 7823 ft 168 kts 294°
2026-04-21 18:23 70.95266 -153.45983 7823 ft 168 kts 295°
2026-04-21 18:24 70.95702 -153.49298 7820 ft 168 kts 295°
2026-04-21 18:24 70.96137 -153.52615 7820 ft 168 kts 294°
2026-04-21 18:24 70.96567 -153.55898 7821 ft 168 kts 294°
2026-04-21 18:24 70.97002 -153.59221 7820 ft 168 kts 295°
2026-04-21 18:25 70.97437 -153.62540 7821 ft 168 kts 296°
2026-04-21 18:25 70.97872 -153.65878 7822 ft 169 kts 295°
2026-04-21 18:25 70.98306 -153.69219 7822 ft 169 kts 295°
2026-04-21 18:25 70.98740 -153.72565 7822 ft 169 kts 295°
2026-04-21 18:26 70.99174 -153.75914 7821 ft 169 kts 295°
2026-04-21 18:26 70.99608 -153.79264 7821 ft 169 kts 295°
2026-04-21 18:26 71.00042 -153.82625 7827 ft 169 kts 295°
2026-04-21 18:26 71.00475 -153.85992 7827 ft 169 kts 295°
2026-04-21 18:27 71.00907 -153.89343 7829 ft 169 kts 295°
2026-04-21 18:27 71.01334 -153.92666 7829 ft 169 kts 295°
2026-04-21 18:27 71.01766 -153.96030 7830 ft 169 kts 295°
2026-04-21 18:27 71.02196 -153.99397 7830 ft 169 kts 295°
2026-04-21 18:28 71.02627 -154.02766 7827 ft 169 kts 295°
2026-04-21 18:28 71.03057 -154.06137 7827 ft 169 kts 295°
2026-04-21 18:28 71.03486 -154.09508 7827 ft 169 kts 295°
2026-04-21 18:28 71.03914 -154.12877 7827 ft 169 kts 295°
2026-04-21 18:29 71.04341 -154.16246 7827 ft 169 kts 295°
2026-04-21 18:29 71.04768 -154.19615 7827 ft 169 kts 295°
2026-04-21 18:29 71.05193 -154.22986 7827 ft 169 kts 295°
2026-04-21 18:29 71.05618 -154.26357 7827 ft 169 kts 295°
2026-04-21 18:30 71.06043 -154.29729 7830 ft 169 kts 295°
2026-04-21 18:30 71.06467 -154.33103 7830 ft 169 kts 295°
2026-04-21 18:30 71.06891 -154.36486 7830 ft 169 kts 295°
2026-04-21 18:30 71.07314 -154.39863 7830 ft 169 kts 295°
2026-04-21 18:31 71.07736 -154.43242 7832 ft 169 kts 295°
2026-04-21 18:31 71.08153 -154.46586 7832 ft 169 kts 295°
2026-04-21 18:31 71.08574 -154.49969 7832 ft 169 kts 294°
2026-04-21 18:31 71.08995 -154.53353 7832 ft 169 kts 294°
2026-04-21 18:32 71.09415 -154.56746 7832 ft 169 kts 295°
2026-04-21 18:32 71.09834 -154.60133 7833 ft 169 kts 295°
2026-04-21 18:32 71.10254 -154.63529 7819 ft 169 kts 295°
2026-04-21 18:32 71.10673 -154.66918 7832 ft 169 kts 295°
2026-04-21 18:33 71.11090 -154.70313 7829 ft 169 kts 295°
2026-04-21 18:33 71.11506 -154.73709 7835 ft 169 kts 295°
2026-04-21 18:33 71.11923 -154.77105 7829 ft 169 kts 295°
2026-04-21 18:33 71.12339 -154.80500 7829 ft 169 kts 295°
2026-04-21 18:34 71.12753 -154.83898 7829 ft 169 kts 295°
2026-04-21 18:34 71.13167 -154.87297 7829 ft 169 kts 295°
2026-04-21 18:34 71.13581 -154.90696 7833 ft 169 kts 295°
2026-04-21 18:34 71.13995 -154.94099 7829 ft 169 kts 295°
2026-04-21 18:35 71.14267 -154.96347 7842 ft 168 kts 295°
2026-04-21 18:35 71.14818 -155.00906 7844 ft 169 kts 295°
2026-04-21 18:35 71.15229 -155.04311 7838 ft 169 kts 295°
2026-04-21 18:35 71.15635 -155.07678 7834 ft 169 kts 295°
2026-04-21 18:36 71.16046 -155.11091 7836 ft 169 kts 295°
2026-04-21 18:36 71.16456 -155.14507 7838 ft 169 kts 295°
2026-04-21 18:36 71.16867 -155.17935 7778 ft 172 kts 295°
2026-04-21 18:36 71.17274 -155.21326 7633 ft 165 kts 295°
2026-04-21 18:37 71.17666 -155.24616 7499 ft 161 kts 295°
2026-04-21 18:37 71.18053 -155.27854 7363 ft 159 kts 295°
2026-04-21 18:37 71.18433 -155.31058 7224 ft 158 kts 295°
2026-04-21 18:37 71.18811 -155.34244 7093 ft 157 kts 295°
2026-04-21 18:38 71.19184 -155.37382 6952 ft 153 kts 295°
2026-04-21 18:38 71.19547 -155.40462 6822 ft 151 kts 295°
2026-04-21 18:38 71.19909 -155.43519 6696 ft 150 kts 295°
2026-04-21 18:38 71.20266 -155.46552 6551 ft 149 kts 295°
2026-04-21 18:39 71.20621 -155.49574 6405 ft 149 kts 295°
2026-04-21 18:39 71.20972 -155.52553 6266 ft 149 kts 295°
2026-04-21 18:39 71.21319 -155.55522 6117 ft 144 kts 295°
2026-04-21 18:39 71.21659 -155.58424 5964 ft 143 kts 295°
2026-04-21 18:40 71.22001 -155.61336 5739 ft 144 kts 295°
2026-04-21 18:40 71.22345 -155.64285 5513 ft 145 kts 295°
2026-04-21 18:40 71.22570 -155.66219 5364 ft 144 kts 295°
2026-04-21 18:40 71.23022 -155.70103 5069 ft 142 kts 295°
2026-04-21 18:41 71.23356 -155.72982 4839 ft 141 kts 295°
2026-04-21 18:41 71.23688 -155.75845 4607 ft 140 kts 295°
2026-04-21 18:41 71.24017 -155.78695 4375 ft 140 kts 295°
2026-04-21 18:41 71.24345 -155.81526 4149 ft 139 kts 294°
2026-04-21 18:42 71.24671 -155.84353 3923 ft 139 kts 295°
2026-04-21 18:42 71.24995 -155.87169 3692 ft 138 kts 294°
2026-04-21 18:42 71.25314 -155.89940 3480 ft 137 kts 294°
2026-04-21 18:42 71.25633 -155.92730 3249 ft 137 kts 294°
2026-04-21 18:43 71.25953 -155.95507 3019 ft 136 kts 294°
2026-04-21 18:43 71.26269 -155.98285 2790 ft 136 kts 294°
2026-04-21 18:43 71.26586 -156.01050 2559 ft 135 kts 294°
2026-04-21 18:43 71.26898 -156.03794 2359 ft 132 kts 294°
2026-04-21 18:44 71.27199 -156.06450 2211 ft 128 kts 294°
2026-04-21 18:44 71.27493 -156.09038 2075 ft 125 kts 294°
2026-04-21 18:44 71.27779 -156.11564 1963 ft 123 kts 294°
2026-04-21 18:44 71.28062 -156.14053 1844 ft 121 kts 294°
2026-04-21 18:45 71.28339 -156.16508 1725 ft 120 kts 293°
2026-04-21 18:45 71.28415 -156.19119 1600 ft 122 kts 275°
2026-04-21 18:45 71.28421 -156.21757 1482 ft 122 kts 274°
2026-04-21 18:45 71.28431 -156.24383 1365 ft 121 kts 275°
2026-04-21 18:46 71.28440 -156.27006 1251 ft 121 kts 274°
2026-04-21 18:46 71.28449 -156.29612 1132 ft 121 kts 275°
2026-04-21 18:46 71.28457 -156.32190 1006 ft 120 kts 274°
2026-04-21 18:46 71.28465 -156.34785 878 ft 120 kts 274°
2026-04-21 18:47 71.28473 -156.37321 850 ft 113 kts 273°
2026-04-21 18:47 71.28480 -156.39818 701 ft 117 kts 274°
2026-04-21 18:47 71.28487 -156.42359 597 ft 116 kts 273°
2026-04-21 18:47 71.28493 -156.44869 533 ft 114 kts 273°
2026-04-21 18:48 71.28499 -156.47203 490 ft 102 kts 273°
2026-04-21 18:48 71.28502 -156.49272 404 ft 88 kts 272°
2026-04-21 18:48 71.28504 -156.51120 301 ft 83 kts 273°
2026-04-21 18:48 71.28509 -156.52901 205 ft 81 kts 273°
2026-04-21 18:49 71.28514 -156.54641 146 ft 78 kts 271°
2026-04-21 18:49 71.28514 -156.56365 145 ft 81 kts 269°
2026-04-21 18:49 71.28517 -156.57537 143 ft 82 kts 270°
2026-04-21 18:49 71.28343 -156.59773 177 ft 80 kts 233°
2026-04-21 18:50 71.27987 -156.61158 152 ft 85 kts 249°
2026-04-21 18:50 71.27954 -156.62981 160 ft 85 kts 277°
2026-04-21 18:50 71.28206 -156.64632 173 ft 84 kts 303°
2026-04-21 18:50 71.28549 -156.66116 187 ft 84 kts 306°
2026-04-21 18:51 71.28695 -156.67192 215 ft 81 kts 276°
2026-04-21 18:51 71.28600 -156.69577 205 ft 85 kts 265°
2026-04-21 18:51 71.28576 -156.71422 159 ft 84 kts 268°
2026-04-21 18:51 71.28559 -156.73194 96 ft 79 kts 271°
2026-04-21 18:52 71.28555 -156.74816 59 ft 70 kts 270°
2026-04-21 18:52 71.28555 -156.75795 51 ft 65 kts 268°
2026-04-21 18:52 71.28553 -156.77392 56 ft 28 kts 270°
2026-04-21 18:52 71.28628 -156.77650 55 ft 14 kts 313°
2026-04-21 18:53 71.28674 -156.77801 55 ft 5 kts 315°
2026-04-21 18:53 71.28678 -156.77814 55 ft 0 kts 315°
2026-04-21 18:53 71.28700 -156.77756 55 ft 12 kts 95°
2026-04-21 18:54 71.28696 -156.77563 55 ft 14 kts 91°
2026-04-21 18:54 71.28713 -156.77412 54 ft 8 kts 105°
2026-04-21 18:54 71.28725 -156.77369 52 ft 0 kts